www.pogodaiklimat.ru
ПОГОДА в Атланте
Время
и дата
23:53 20.04
00:53 21.04
01:53 21.04
02:53 21.04
03:53 21.04
04:53 21.04
05:53 21.04
06:53 21.04
07:53 21.04
08:53 21.04
09:53 21.04
10:53 21.04
11:53 21.04
12:53 21.04
13:53 21.04
14:53 21.04
15:53 21.04
16:53 21.04
17:53 21.04
18:53 21.04
19:53 21.04
20:53 21.04
21:53 21.04
22:53 21.04
23:53 21.04
00:53 22.04
01:53 22.04
02:53 22.04
03:53 22.04
04:53 22.04
05:53 22.04
06:53 22.04
07:53 22.04
08:53 22.04
09:53 22.04
10:53 22.04
11:53 22.04
12:53 22.04
13:53 22.04
14:53 22.04
15:53 22.04
16:53 22.04
17:53 22.04
18:53 22.04
19:53 22.04
20:53 22.04
21:53 22.04
22:53 22.04
Ветер
(напр.,м/с)
Видим. Явления Облачность Т
(С)
Тd
(С)
f
(%)
Тe
(С)
Тes
(С)
Комфортность P
(гПа)
Po
(гПа)
Тmin
(С)
Tmax
(С)
R
(мм)
R24
(мм)
S
(см)
ЮЗ 1 16 км 5/0 2400 м
[Ac]
+15.0 +7.8 62 +15 +15 1013.3 983.4
ЮЗ 1 16 км 2/0 2400 м
[Ac]
+13.3 +8.9 75 +13 +13 1013.2 983.4 +12.2 +21.7
штиль 0 16 км ясно +12.8 +8.3 74 +12 +12 1012.9 983.0
штиль 0 16 км ясно +12.2 +8.3 77 +12 +12 1012.3 982.4
ЮЗ 1 16 км ясно +11.1 +8.3 83 +10 +10 1012.6 982.7
Ю 1 16 км ясно +10.6 +8.3 86 +9 +9 1013.0 983.0
З 2 16 км ясно +12.2 +6.1 66 +10 +10 1013.5 983.7
СЗ 3
{4}
16 км ясно +11.7 +5.6 66 +9 +9 1014.7 984.7 +10.6 +13.3
С 2
{4}
16 км ясно +11.1 +3.9 61 +9 +9 1015.7 985.3
СЗ 3
{5}
16 км 2/0 2850 м
[Ac]
+11.7 +3.3 56 +9 +10 1016.1 985.7
СЗ 3
{6}
16 км ясно +12.2 +3.3 54 +10 +13 1016.8 986.6
СЗ 3
{7}
16 км ясно +12.2 +2.2 50 +10 +13 1017.7 987.3
СЗ 3
{5}
16 км 5/5 1140 м +12.2 +1.7 49 +10 +12 1017.8 987.6
СЗ 4
{5}
16 км ясно +13.3 -0.6 38 +11 +14 1017.7 987.3 +11.1 +13.3
С 2
{5}
16 км ясно +12.8 -0.6 40 +11 +21 опасность
простуды
1017.6 987.3
СЗ 4
{6}
16 км ясно +12.8 -2.2 35 +10 +13 1017.8 987.3
СЗ 4
{5}
16 км ясно +13.3 -2.2 34 +11 +13 1017.8 987.3
СЗ 4
{5}
16 км ясно +12.8 -3.9 31 +10 +12 1017.9 987.3
СЗ 3
{5}
16 км ясно +11.7 -3.9 33 +9 +11 1018.4 988.0
СЗ 3
{4}
16 км ясно +10.6 -3.3 38 +8 +9 1018.8 988.3 +10.6 +13.9
СЗ 1
{4}
16 км ясно +8.9 -3.9 40 +7 +7 1020.0 989.3
С 2 16 км ясно +7.8 -3.9 43 +5 +5 1020.7 989.9
С 2 16 км ясно +6.7 -4.4 45 +4 +4 1021.6 990.9
штиль 0 16 км ясно +6.1 -4.4 47 +6 +6 1022.1 991.6
штиль 0 16 км ясно +5.0 -2.8 57 +5 +5 1022.5 991.6
штиль 0 16 км ясно +3.3 -1.7 70 +3 +3 1022.2 991.2 +2.8 +10.6
СЗ 1 16 км ясно +2.8 -1.7 72 0 0 1022.2 991.2
штиль 0 16 км ясно +1.7 -2.2 75 +1 +1 1022.3 991.6
штиль 0 16 км ясно +1.1 -1.7 82 0 0 1022.4 991.6
штиль 0 16 км ясно +1.1 -2.2 79 0 0 1022.5 991.6
штиль 0 16 км ясно +0.6 -1.1 88 -1 -1 1022.6 991.6
штиль 0 16 км ясно +1.7 -0.6 85 +1 +1 1023.5 992.6 +0.6 +3.9
штиль 0 16 км ясно +5.6 -1.1 62 +5 +6 1024.4 993.5
С 2 16 км ясно +10.0 -3.9 37 +8 +10 1024.5 993.5
штиль 0 16 км ясно +11.1 -6.1 29 +11 +22 опасность
простуды
1024.7 993.9
СЗ 1 16 км ясно +12.2 -6.7 26 +12 +24 опасность
простуды
1024.1 993.5
С 2 16 км ясно +13.9 -6.1 24 +13 +24 опасность
простуды
1023.7 992.9
16 км ясно +15.0 -5.0 25 +15 +41 опасность
простуды
1022.9 992.2 +1.7 +15.0
16 км ясно +15.6 -5.0 24 +16 +42 опасность
простуды
1022.1 991.6
СЗ 3
{4}
16 км ясно +16.1 -4.4 24 +15 +22 1021.5 990.9
СЗ 2 16 км ясно +16.7 -4.4 23 +16 +25 1020.9 990.3
З 2 16 км ясно +16.7 -4.4 23 +16 +21 1020.5 989.9
З 2 16 км ясно +16.1 -3.3 26 +16 +19 1020.4 989.6
штиль 0 16 км ясно +15.0 -2.8 29 +15 +17 1020.0 989.3 +14.4 +17.2
штиль 0 16 км ясно +11.1 +1.1 50 +11 +11 1020.6 989.9
штиль 0 16 км ясно +9.4 +2.2 61 +9 +9 1021.5 990.9
СВ 1 16 км ясно +7.8 +2.2 68 +6 +6 1021.4 990.6
штиль 0 16 км ясно +6.7 +2.8 76 +6 +6 1021.6 990.9
Местоположение метеостанции Fulton County Airport - Brown Field: широта 33.7775 долгота -84.5244 высота над уровнем моря 256 м.
В архиве по умолчанию представлена погода в Атланте за последние 1-2 суток. Обновление информации о фактической погоде в базе происходит ежечасно! Архивные данные за месяц целиком и за предыдущие месяцы Вы можете получить, выбрав интересующий диапазон дат из раскрывающегося списка и нажав кнопку "Ввод!".
Внимание! Архив погоды МЕТАР в базе сайта по станциям, не включенным в климатический монитор, хранится не более 60 дней. Нет смысла пытаться выбрать более раннюю дату.
*Определитесь, кто Вы:
Внимание! Время в таблицах - местное (без учета летнего времени). Для получения всемирного времени необходимо вычесть поправку, которая равна -5 ч.
Смотрите также архив погоды в соседних городах и на ближайших метеорологических станциях:
Партнеры нашего сайта:      
Пояснения к столбцам:
  • Ветер - указаны скорость ветра в м/с - средняя за 10 мин, порывы в срок и между сроками (в фигурных скобках) и направление, откуда дует ветер: С - северный,
  • СВ - северо-восточный, В - восточный, ЮВ - юго-восточный, Ю - южный, ЮЗ - юго-западный, З - западный, СЗ - северо-западный.
  • Видимость - горизонтальная дальность видимости в метрах или километрах. При видимости от 1 до 10 км при отсутствии осадков обычно наблюдается дымка, при ухудшении видимости до 1 км и менее - туман. В сухую погоду видимость может ухудшаться дымом, пылью или мглою.
  • Явления - указаны атмосферные явления, наблюдавшиеся в срок или в последний час перед сроком; фигурными скобками обозначены явления, наблюдавшиеся между сроками (за 1-3 часа до срока); квадратными скобками обозначены град или гололедные отложения с указанием их диаметра в мм.
  • Облачность - указаны через наклонную черту общая и нижняя облачность в баллах и высота нижней границы облаков в метрах; квадратными скобками обозначены формы облаков: Ci - перистые, Cs - перисто-слоистые, Cc - перисто-кучевые, Ac - высококучевые, As - высокослоистые, Sc - слоисто-кучевые, Ns - слоисто-дождевые, Cu - кучевые, Cb - кучево-дождевые. Подробнее классификацию облаков см. в Атласе облаков (PDF).
  • T - Температура воздуха - температура, измеренная на высоте 2 м над землей.
  • Td - Температура точки росы - температура, при понижении до которой содержащийся в воздухе водяной пар достигнет насыщения.
  • f - Относительная влажность воздуха - влажноcть воздуха, измеренная на высоте 2 м над землей.
  • Te - Эффективная температура - температура, которую ощущает одетый по сезону человек в тени. Характеристика душности погоды. При расчете учитывается влияние влажности воздуха и скорости ветра на теплоощущения человека.
  • Tes - Эффективная температура на солнце - температура, которую ощущает человек, с поправкой на солнечный нагрев. Характеристика знойности погоды. Зависит от высоты солнца над горизонтом, облачности и скорости ветра. Ночью, в пасмурную погоду, а также при ветре 12 м/с и более поправка равна нулю.
  • P - Атмосферное давление - приведенное к уровню моря атмосферное давление.
  • Po - Атмосферное давление - измеренное на уровне метеостанции атмосферное давление.
  • Tmin - Минимальная температура - минимум температуры воздуха на высоте 2 м над землей.
  • Tmax - Максимальная температура - максимум температуры воздуха на высоте 2 м над землей.
  • R - Количество осадков - Количество выпавших осадков за период времени, мм. При наведении курсора мыши на число - период времени, за который выпало указанное количество осадков.
  • R24 - Количество осадков - Количество выпавших осадков за 24 часа, мм.
  • S - Снежный покров - Высота снежного покрова, см. При наведении курсора мыши на число - состояние снежного покрова и степень покрытия местности в баллах.